Weather in Fiumicino

Italy     41°46′22″N   12°13′59″E
temp.,
°C
wind,
m/s
gust,
m/s
humid.,
%
clouds,
%
prec.,
mm/h
press.,
hPa
HPBL,
m
20 september, mon
mon2023:00+23wsw911590 0.0 10141015
02:00+23w8106410 0.0 10131357
05:00+23wsw56619 0.0 10121055
08:00+23wsw22592 0.0 10131005
11:00+24sw44580 0.0 10141203
14:00+24sw555932 0.0 10141283
17:00+24sw5559100 0.0 10141074
20:00+24wsw3460100 0.0 1015912
21 september, tue
tue2123:00+24sw2461100 0.0 1017779
02:00+23sw23640 0.0 1017693
05:00+21nne32750 0.0 1017147
08:00+22e34724 0.0 1018301
11:00+24sse33636 0.0 1019876
14:00+24ssw44625 0.0 1019628
17:00+24wsw33601 0.0 1019797
20:00+23nw3366100 0.0 1020515
22 september, wed
wed2223:00+23nnw126497 0.0 1020320
02:00+21ne337159 0.0 1020156
05:00+20ne4572100 0.0 1020185
08:00+20ne446999 0.0 1020174
11:00+23ene2253100 0.0 1020481
14:00+24sw32560 0.0 1019558
17:00+24w44570 0.0 1017428
20:00+23nw56625 0.0 1017407
23 september, thu
thu2323:00+23nw45637 0.0 1017375
02:00+21ne455434 0.0 1017166
05:00+21ene46665 0.0 1017352
08:00+22se356512 0.0 1018437
11:00+23ssw11575 0.0 1019881
14:00+23sw43595 0.0 1018773
17:00+23sw43565 0.0 1018610
20:00+23sw23595 0.0 1018508
24 september, fri
fri2423:00+22sse11592 0.0 1018321
02:00+21ne22680 0.0 1018137
05:00+20ene22684 0.0 1018137
08:00+20ene33670 0.0 1018174
11:00+23sse33600 0.0 1019546
14:00+24s55556 0.0 1018668
17:00+24s555848 0.0 1017641
20:00+24sse5662100 0.0 1018519